Find Starlink 30853

NORAD ID: 58236 Int'l Des: 2023-171 Owner: SPXS Country: US Constellation: starlink operational
LEOCIRCULAR

リアルタイム位置

3D地球を読み込み中...

Starlink 30853について

説明を読み込み中...

次回通過

Passes for default location (London). Set your location on the main map for personalized predictions.

高度履歴

Loading altitude history...

軌道要素

1 58236U 23171G 26126.57313213 .00000383 00000-0 23455-4 0 9997
2 58236 43.0040 318.6308 0001872 259.6852 100.3789 15.27578390138581
Epoch: May 6, 2026 • Age: 18 hours

現在のステータス

高度 487.3 km
速度 7.63 km/s
衛星直下点 42.67°N, 78.28°E
打ち上げ日 Nov 8, 2023
運用期間 2.4 years
タイプ internet

技術仕様

分類 Payload
質量 730.00 kg
乾燥質量 700.00 kg
総質量 730.00 kg
長さ 0.30 m
直径 4.10 m
スパン 29.00 m
形状 Box + pan
製造者 SPXS
バスタイプ Starlink V2M
フェーズステータス In Orbit
所有者/国 SPXS/US

Most Searched